Regional Weather Roundup
Issued by NWS Wakefield, VA

Home | Current Version | Previous Version | Text Only | Print | Product List | Glossary Off
Versions: 1 2 3 4 5 6 7 8 9 10 11 12 13 14 15 16 17 18 19 20 21 22 23 24 25 26 27 28 29 30 31 32 33 34 35 36 37 38 39 40 41 42 43 44 45 46 47 48 49 50

000
ASUS41 KAKQ 061814
RWRAKQ

REGIONAL WEATHER ROUNDUP
NATIONAL WEATHER SERVICE WAKEFIELD VA
100 PM EST SAT FEB 06 2016

Note: "fair" indicates few or no clouds below 12,000 feet with no
significant weather and/or obstructions to visibility. * = Denotes
station may not report precipitation (e.g., rain,snow,etc.),
thunder or fog.

VAZ042-051-052>054-056-061900-
NORTHERN VIRGINIA

CITY           SKY/WX    TMP DP  RH WIND       PRES   REMARKS
WASH NATIONAL  PTSUNNY   42  25  50 S12       30.39F
DULLES         PTSUNNY   41  20  43 S13       30.36F
FORT BELVOIR   FAIR      41  19  41 SE7       30.39F
QUANTICO       FAIR      42  26  53 S9        30.41F
FREDERICKSBRG* FAIR      42  20  41 SW8G17    30.38F
STAFFORD*      FAIR      42  21  43 SE7       30.42F
WARRENTON      FAIR      44  25  47 S10G17    30.36F
CULPEPER*      FAIR      42  20  41 SW9       30.38F
MANASSAS*      SUNNY     43  21  42 SW8       30.38F
LEESBURG*      FAIR      41  23  48 S12       30.36F
WINCHESTER     FAIR      43  19  39 S9        30.31F
FRONT ROYAL*   FAIR      41  16  36 SW3       30.31F
LURAY*         FAIR      41  14  33 SW9       30.31F
$$

VAZ048-049-060>072-079>083-061900-
CENTRAL AND SOUTH CENTRAL VIRGINIA

CITY           SKY/WX    TMP DP  RH WIND       PRES   REMARKS
RICHMOND       PTSUNNY   42  20  41 W5        30.40F
CHESTERFIELD*  FAIR     N/A N/A N/A CALM      30.41F
PETERSBURG*    FAIR      44  15  31 NW5       30.41F
HANOVER        FAIR      42  17  36 CALM      30.41F
TAPPAHANNOCK*  FAIR      43  21  41 SE3       30.41F
QUINTON*       FAIR      43  20  40 NE9       30.40F
CHARLOTTSVILLE FAIR      42  18  37 S14       30.35F
GORDONSVILLE*  FAIR      42  20  40 S10       30.36F
ORANGE*        FAIR      43  21  42 S6        30.38F
LOUISA*        FAIR      43  19  39 S8        30.36F
BUMPASS*       FAIR      41  19  41 MISG      30.38F
FARMVILLE*     FAIR      44  19  37 S6        30.36F
CREWE*         FAIR      43  19  38 CALM      30.39F
FORT PICKETT*  FAIR      42  17  36 CALM      30.39F
CHASE CITY*    FAIR      42  14  32 E3        30.38F
CLARKSVILLE*   FAIR      43  21  42 N5        30.38F
SOUTH HILL*    FAIR      41  17  38 CALM      30.45F
LAWRENCEVILLE* FAIR      41  20  42 CALM      30.39F
EMPORIA*       FAIR      41  23  48 CALM      30.41F
$$

VAZ088>098-061900-
SOUTHEAST VIRGINIA

CITY           SKY/WX    TMP DP  RH WIND       PRES   REMARKS
NORFOLK        FAIR      42  26  53 N8        30.40F
VIRGINIA BEACH PTSUNNY   48  29  47 N9        30.38F
NORFOLK NAVAL  PTSUNNY   43  24  47 CALM      30.41F
WEST POINT*    FAIR      42  21  42 SW6       30.42F
SALUDA*        FAIR      39  27  60 CALM      30.41F
NEWPORT NEWS   FAIR      43  26  51 VRB5      30.40F
LANGLEY AFB    FAIR      43  28  55 E3        30.39F
FORT EUSTIS    FAIR      42  22  45 NW7       30.39F
WILLIAMSBURG*  FAIR      45  27  49 CALM      30.41F
HR EXEC AP*    FAIR      45  27  49 N7        30.41F
FRANKLIN*      FAIR      42  26  53 NW8       30.40F
US460-WAKEFLD  FAIR      45  24  43 W5        30.40F
$$

VAZ020-022-025-037-045-061900-
WEST CENTRAL AND SOUTHWEST VIRGINIA

CITY           SKY/WX    TMP DP  RH WIND       PRES   REMARKS
STAUNTON*      FAIR      46  16  30 SW13      30.32F
WAYNESBORO*    FAIR      38  11  32 SW6       30.31F
HOT SPRINGS VA FAIR      32  12  44 W8        30.19F
LYNCHBURG      FAIR      39  18  42 SW7       30.38F
DANVILLE       FAIR      44  18  35 CALM      30.37F
SOUTH BOSTON*  FAIR      43  15  31 CALM      30.39F
MARTINSVILLE   FAIR      40  13  33 CALM      30.37F
ROANOKE        PTSUNNY   40  16  37 S7        30.36F
BLACKSBURG     FAIR      38  18  45 W6        30.33F
DUBLIN*        FAIR      39  16  38 SW5       30.31F
MARION*        FAIR      41  13  31 SW8       30.30F
HILLSVILLE*    FAIR      37  10  33 W5        30.27F
RICHLANDS*     FAIR      37  11  34 W3        30.28F
WISE*          FAIR      41   7  24 NW6       30.29F
ABINGDON*      FAIR      42   9  26 NW5       30.31F
$$

MDZ021>025-VAZ099-100-061900-
SOUTHERN MARYLAND AND THE DELMARVA PENINSULA

CITY           SKY/WX    TMP DP  RH WIND       PRES   REMARKS
PATUXENT RIVER PTSUNNY   41  25  53 SE9       30.40F
BAY BRIDGE APT   N/A     41  21  45 CALM      30.39F
LEONARDTOWN    MOSUNNY   41  21  45 CALM      30.40F
DOVER          MOSUNNY   41  26  54 S6        30.38F
GEORGETOWN     MOSUNNY   42  23  46 S7        30.40F
EASTON         PTSUNNY   41  21  45 CALM      30.44F
CAMBRIDGE      MOSUNNY   41  21  45 S5        30.39F
SALISBURY      MOSUNNY   42  24  49 VRB3      30.40F
OCEAN CITY     MOSUNNY   40  27  59 S8        30.41F
WALLOPS ISLAND PTSUNNY   43  26  51 VRB3      30.41F
ACCOMACK*      FAIR      41  25  52 NW3       30.40F
$$

NCZ012>017-030>032-061900-
NORTH CENTRAL AND EASTERN NORTH CAROLINA

CITY           SKY/WX    TMP DP  RH WIND       PRES   REMARKS
ROANOKE RAPIDS FAIR      43  23  45 N7        30.41F
RALEIGH        PTSUNNY   46  18  32 CALM      30.38F
ELIZABETH CITY MOSUNNY   46  29  51 N9        30.38F
AHOSKIE*       MOSUNNY   43  22  44 N8        30.40F
EDENTON*       MOSUNNY   47  29  50 N7        30.39F
CURRITUCK*     MOSUNNY  N/A N/A N/A NE10      30.39F
KILL DEVIL HLS MOSUNNY   44  30  58 N6        30.36F
MANTEO         MOSUNNY   44  31  60 NE10      30.38F
CAPE HATTERAS  CLOUDY    48  33  56 NE12G18   30.34F
TARBORO*       FAIR      48  22  36 N8        30.40F
GOLDSBORO      MOSUNNY   45  19  36 NE10      30.35F
WASHINGTON     MOSUNNY   45  27  48 CALM      30.38F
GREENVILLE     PTSUNNY   46  27  46 N7        30.39F
NEW BERN       PTSUNNY   49  27  42 N10       30.37F
WILMINGTON     CLOUDY    50  25  37 N9        30.34F
$$

VAZ048-061900-
ELSEWHERE

CITY           SKY/WX    TMP DP  RH WIND       PRES   REMARKS
HARRISBURG PA  MOSUNNY   41  19  41 S12G18    30.32F
BALTIMORE      CLOUDY    42  19  39 SW8       30.37F
ANNAPOLIS      PTSUNNY   40  25  55 S8        30.39F
ANDREWS AFB    FAIR      42  21  44 SW8       30.37F
PHILADELPHIA   PTSUNNY   40  19  43 SW9       30.38F
HENDERSON NC   MOSUNNY   43  14  31 CALM      30.38F
GREENSBORO     PTSUNNY   45  15  30 VRB6      30.34F
ROCKY MOUNT    SUNNY     45  23  42 N6        30.39F
$$

VAZ100-061900-
MARINE

STATION/POSITION TIME  TEMP    WIND        PRES    WAVE   SWELL
                       AIR SEA DIR/SP/G            HT/PER HT/PER
                 (UTC) (F)     (DEG/KT/KT) (MB)    (FT/S) (FT/S)
BRANDYWINE LGT   1700   36     210/  4/  6 1030.8F
CAPE MAY NJ      1700   38 42  230/  5/  6 1030.5F
LEWES DE         1700   41 42  260/  7/  8 1030.5F
15NM E FENWICK I 1750   40 46              1030.2F   3/10
OCEAN-CITY-INLET 1700   39 41  180/  4/  6 1030.3F
WACHAPREAGUE VA  1700   41 44  180/  4/  5 1030.9F
GOOSES REEF MD   1800   38 40  160/ 10/ 10 1030.2F   1
COVE POINT MD    1700   36     180/  7/  8 1031.4F
SOLOMONS ISLAND  1700   38 40   90/  5/  6   N/A
BISHOPS HEAD MD  1700   38 40  150/  4/  4 1030.1F
POTOMAC MD       1800   38 42  150/  6/  6 1029.0F   0
CAMBRIDGE MD     1700   39 40   10/  3/  4 1030.0F
LEWISETTA VA     1700   37 41   90/  5/  5 1030.7F
RAPPAHANNOCK LGT 1700          290/  4/  6 1031.3F
STINGRAY PT      1800   38 42   70/  4/  6 1029.8F   0
YORK RVR RNG VA  1700   40      90/  1/  2 1030.4F
YORKTOWN VA      1700   39 44   70/  5/  6 1030.7F
JAMESTOWN VA     1800   39 44  290/  4/  4   N/A     0
DOMINION TERM VA 1700   40     310/  3/  3 1030.8F
KIPTOPEKE VA     1700      44  330/  7/  8   N/A
CHES BAY BRIDGE  1700   39 44  340/  6/  7 1030.4F
CAPE HENRY VA    1700   39     340/  8/  9   N/A
CHESAPEAKE LGHT  1700   40     350/  6/  8 1031.2F
WILLOUBY STN VA  1700   40      10/  3/  3 1027.5S
CAPE HENRY BUOY  1728      46                N/A     3/ 7
1ST LANDING BUOY 1800      44                N/A     1/ 5
CAPE CHARLES BUO 1726      45                N/A     3/ 7   3/ 7
OFFSHORE WE BUOY 1721      49                N/A     4/ 9   3/ 9
64NM E OF VA BCH 1750   44 54   10/ 12/ 16 1028.3F   5/ 9   3/ 9
DUCK PIER NC     1700   41 45  360/  8/  9 1029.4F
44100 DUCK FRF   1724      46                N/A     5/ 9   2/11
44056 DUCK FRF   1711      45                N/A     4/ 8   2/11
OREGON INLET NC  1700   44 45  350/  9/ 12 1029.6F
HATTERAS NC      1700   44 53   30/ 13/ 18 1028.2F
DIAMOND SHLS NC  1750   49 72   40/ 17/ 21 1027.2F   6/11   5/11
$$



USA.gov is the U.S. government's official web portal to all federal, state and local government web resources and services.